| time (UTC) | temp F | wind direction | speed knots | gust knots | rain 1hr in | rain 24hr in | rain mn in | humidity % | barometer mb |
| 20260510123533 | 72 | 136 | 3.5 | 6.1 | 0.00 | 0.00 | 0.00 | 92 | 1013.2 |
| 20260510123021 | 71 | 157 | 2.6 | 3.5 | 0.00 | 0.00 | 0.00 | 93 | 1013.2 |
| 20260510122528 | 70 | 148 | 3.5 | 4.3 | 0.00 | 0.00 | 0.00 | 94 | 1012.8 |
| 20260510122016 | 70 | 163 | 3.5 | 6.1 | 0.00 | 0.00 | 0.00 | 95 | 1012.7 |
| 20260510121523 | 69 | 154 | 3.5 | 5.2 | 0.00 | 0.00 | 0.00 | 96 | 1012.7 |
| 20260510121029 | 69 | 148 | 3.5 | 5.2 | 0.00 | 0.00 | 0.00 | 97 | 1012.7 |
| 20260510120517 | 69 | 180 | 3.5 | 4.3 | 0.00 | 0.00 | 0.00 | 98 | 1012.7 |
| 20260510120024 | 69 | 175 | 3.5 | 4.3 | 0.00 | 0.00 | 0.00 | 98 | 1012.7 |
| 20260510115531 | 69 | 171 | 3.5 | 5.2 | 0.00 | 0.00 | 0.00 | 98 | 1012.7 |
| 20260510115019 | 69 | 172 | 3.5 | 4.3 | 0.00 | 0.00 | 0.00 | 98 | 1012.6 |
| 20260510114526 | 69 | 154 | 2.6 | 4.3 | 0.00 | 0.00 | 0.00 | 98 | 1012.6 |
| 20260510114032 | 69 | 192 | 3.5 | 5.2 | 0.00 | 0.00 | 0.00 | 98 | 1012.6 |
| 20260510113521 | 69 | 175 | 2.6 | 4.3 | 0.00 | 0.00 | 0.00 | 98 | 1012.6 |
| 20260510113027 | 69 | 205 | 2.6 | 5.2 | 0.00 | 0.00 | 0.00 | 98 | 1012.6 |
| 20260510112515 | 68 | 190 | 2.6 | 5.2 | 0.00 | 0.00 | 0.00 | 98 | 1012.6 |
| 20260510112042 | 68 | 203 | 2.6 | 4.3 | 0.00 | 0.00 | 0.00 | 98 | 1012.6 |
| 20260510111529 | 68 | 180 | 2.6 | 4.3 | 0.00 | 0.00 | 0.00 | 98 | 1012.6 |
| 20260510111017 | 68 | 185 | 2.6 | 3.5 | 0.00 | 0.00 | 0.00 | 98 | 1012.7 |
| 20260510110524 | 68 | 189 | 1.7 | 2.6 | 0.00 | 0.00 | 0.00 | 97 | 1012.7 |
| 20260510110030 | 68 | 167 | 1.7 | 2.6 | 0.00 | 0.00 | 0.00 | 97 | 1012.4 |
| 20260510105519 | 68 | 213 | 1.7 | 4.3 | 0.00 | 0.00 | 0.00 | 97 | 1012.4 |
| 20260510105025 | 69 | 192 | 1.7 | 2.6 | 0.00 | 0.00 | 0.00 | 97 | 1012.3 |
| 20260510104532 | 69 | 216 | 0.9 | 2.6 | 0.00 | 0.00 | 0.00 | 96 | 1012.2 |
| 20260510104020 | 69 | 196 | 2.6 | 3.5 | 0.00 | 0.00 | 0.00 | 96 | 1012.2 |
| 20260510103527 | 69 | 201 | 1.7 | 2.6 | 0.00 | 0.00 | 0.00 | 96 | 1012.2 |
| 20260510103033 | 69 | 185 | 2.6 | 4.3 | 0.00 | 0.00 | 0.00 | 96 | 1012.2 |
| 20260510102522 | 69 | 203 | 1.7 | 2.6 | 0.00 | 0.00 | 0.00 | 96 | 1012.2 |
| 20260510102028 | 69 | 206 | 1.7 | 2.6 | 0.00 | 0.00 | 0.00 | 95 | 1012.2 |
| 20260510101517 | 70 | 220 | 0.9 | 2.6 | 0.00 | 0.00 | 0.00 | 94 | 1012.1 |
| 20260510101023 | 70 | 194 | 1.7 | 2.6 | 0.00 | 0.00 | 0.00 | 94 | 1011.8 |
| 20260510100530 | 70 | 181 | 2.6 | 5.2 | 0.00 | 0.00 | 0.00 | 93 | 1011.8 |
| 20260510100018 | 70 | 203 | 3.5 | 5.2 | 0.00 | 0.00 | 0.00 | 93 | 1011.8 |
| 20260510095525 | 70 | 207 | 3.5 | 6.1 | 0.00 | 0.00 | 0.00 | 93 | 1011.8 |
| 20260510095032 | 70 | 210 | 2.6 | 5.2 | 0.00 | 0.00 | 0.00 | 93 | 1011.8 |
| 20260510094520 | 71 | 175 | 2.6 | 3.5 | 0.00 | 0.00 | 0.00 | 93 | 1011.8 |
| 20260510094027 | 71 | 203 | 3.5 | 4.3 | 0.00 | 0.00 | 0.00 | 93 | 1011.8 |
| 20260510093533 | 71 | 195 | 3.5 | 5.2 | 0.00 | 0.00 | 0.00 | 93 | 1011.8 |
| 20260510093041 | 71 | 223 | 2.6 | 3.5 | 0.00 | 0.00 | 0.00 | 92 | 1011.8 |
| 20260510092528 | 71 | 201 | 3.5 | 6.1 | 0.00 | 0.00 | 0.00 | 92 | 1011.8 |
| 20260510092016 | 71 | 213 | 3.5 | 5.2 | 0.00 | 0.00 | 0.00 | 92 | 1011.8 |
| 20260510091523 | 71 | 198 | 2.6 | 5.2 | 0.00 | 0.00 | 0.00 | 92 | 1011.8 |
| 20260510091030 | 71 | 210 | 3.5 | 5.2 | 0.00 | 0.00 | 0.00 | 92 | 1011.8 |
| 20260510090518 | 71 | 179 | 3.5 | 5.2 | 0.00 | 0.00 | 0.00 | 91 | 1011.8 |
| 20260510090024 | 71 | 202 | 4.3 | 5.2 | 0.00 | 0.00 | 0.00 | 91 | 1011.7 |
| 20260510085551 | 71 | 177 | 4.3 | 6.1 | 0.00 | 0.00 | 0.00 | 91 | 1011.7 |
| 20260510085020 | 71 | 198 | 3.5 | 5.2 | 0.00 | 0.00 | 0.00 | 91 | 1011.8 |
| 20260510084526 | 71 | 163 | 3.5 | 6.1 | 0.00 | 0.00 | 0.00 | 90 | 1011.9 |
| 20260510084033 | 71 | 161 | 3.5 | 5.2 | 0.00 | 0.00 | 0.00 | 90 | 1011.9 |
| 20260510083521 | 71 | 174 | 3.5 | 4.3 | 0.00 | 0.00 | 0.00 | 90 | 1012.0 |
| 20260510083028 | 72 | 177 | 3.5 | 6.1 | 0.00 | 0.00 | 0.00 | 89 | 1012.0 |
| 20260510082516 | 72 | 194 | 4.3 | 7.8 | 0.00 | 0.00 | 0.00 | 89 | 1012.0 |
| 20260510082023 | 72 | 151 | 4.3 | 6.1 | 0.00 | 0.00 | 0.00 | 88 | 1012.0 |
| 20260510081529 | 72 | 197 | 4.3 | 7.0 | 0.00 | 0.00 | 0.00 | 88 | 1012.0 |
| 20260510081017 | 72 | 156 | 4.3 | 5.2 | 0.00 | 0.00 | 0.00 | 88 | 1012.0 |
| 20260510080524 | 72 | 147 | 5.2 | 7.0 | 0.00 | 0.00 | 0.00 | 87 | 1012.0 |
| 20260510080031 | 73 | 196 | 5.2 | 6.1 | 0.00 | 0.00 | 0.00 | 87 | 1012.4 |
| 20260510075519 | 73 | 196 | 5.2 | 7.8 | 0.00 | 0.00 | 0.00 | 86 | 1012.4 |
| 20260510075046 | 73 | 188 | 5.2 | 7.0 | 0.00 | 0.00 | 0.00 | 86 | 1012.4 |
| 20260510074532 | 73 | 152 | 4.3 | 5.2 | 0.00 | 0.00 | 0.00 | 86 | 1012.4 |
| 20260510074020 | 73 | 167 | 5.2 | 6.1 | 0.00 | 0.00 | 0.00 | 86 | 1012.4 |
| 20260510073527 | 73 | 157 | 4.3 | 6.1 | 0.00 | 0.00 | 0.00 | 86 | 1012.4 |
| 20260510073015 | 73 | 149 | 4.3 | 7.8 | 0.00 | 0.00 | 0.00 | 85 | 1012.4 |
| 20260510072522 | 73 | 163 | 4.3 | 5.2 | 0.00 | 0.00 | 0.00 | 85 | 1012.2 |
| 20260510072029 | 73 | 158 | 5.2 | 7.8 | 0.00 | 0.00 | 0.00 | 84 | 1012.2 |
| 20260510071517 | 73 | 148 | 5.2 | 7.0 | 0.00 | 0.00 | 0.00 | 84 | 1012.2 |
| 20260510071023 | 73 | 186 | 6.1 | 7.8 | 0.00 | 0.00 | 0.00 | 84 | 1012.2 |
| 20260510070530 | 74 | 174 | 5.2 | 7.0 | 0.00 | 0.00 | 0.00 | 83 | 1012.2 |
| 20260510070018 | 74 | 169 | 5.2 | 7.8 | 0.00 | 0.00 | 0.00 | 83 | 1012.2 |
| 20260510065525 | 74 | 160 | 6.1 | 7.8 | 0.00 | 0.00 | 0.00 | 82 | 1012.2 |
| 20260510065032 | 74 | 152 | 5.2 | 7.8 | 0.00 | 0.00 | 0.00 | 82 | 1012.2 |
| 20260510064520 | 74 | 156 | 5.2 | 7.0 | 0.00 | 0.00 | 0.00 | 82 | 1012.2 |
| 20260510064027 | 74 | 167 | 4.3 | 6.1 | 0.00 | 0.00 | 0.00 | 81 | 1012.2 |
| 20260510063533 | 74 | 161 | 4.3 | 6.1 | 0.00 | 0.00 | 0.00 | 81 | 1012.2 |
| 20260510063022 | 75 | 165 | 4.3 | 6.1 | 0.00 | 0.00 | 0.00 | 80 | 1012.2 |
| 20260510062528 | 75 | 164 | 4.3 | 7.0 | 0.00 | 0.00 | 0.00 | 80 | 1012.2 |
| 20260510062016 | 75 | 179 | 5.2 | 7.8 | 0.00 | 0.00 | 0.00 | 80 | 1012.2 |
| 20260510061523 | 75 | 170 | 5.2 | 7.8 | 0.00 | 0.00 | 0.00 | 80 | 1012.2 |
| 20260510061029 | 75 | 188 | 4.3 | 6.1 | 0.00 | 0.00 | 0.00 | 81 | 1012.2 |
| 20260510060518 | 75 | 140 | 4.3 | 6.1 | 0.00 | 0.00 | 0.00 | 81 | 1012.2 |
| 20260510060025 | 75 | 176 | 4.3 | 7.0 | 0.00 | 0.00 | 0.00 | 81 | 1012.0 |
| 20260510055019 | 75 | 164 | 4.3 | 6.1 | 0.00 | 0.00 | 0.00 | 82 | 1012.0 |
| 20260510054526 | 75 | 164 | 3.5 | 5.2 | 0.00 | 0.00 | 0.00 | 82 | 1012.0 |
| 20260510054033 | 75 | 170 | 4.3 | 6.1 | 0.00 | 0.00 | 0.00 | 83 | 1012.0 |
| 20260510053521 | 75 | 160 | 4.3 | 7.0 | 0.00 | 0.00 | 0.00 | 84 | 1012.0 |
| 20260510053027 | 75 | 156 | 3.5 | 5.2 | 0.00 | 0.00 | 0.00 | 85 | 1012.0 |
| 20260510052516 | 75 | 166 | 3.5 | 4.3 | 0.00 | 0.00 | 0.00 | 85 | 1012.1 |
| 20260510052022 | 76 | 176 | 3.5 | 5.2 | 0.00 | 0.00 | 0.00 | 85 | 1012.2 |
| 20260510051529 | 76 | 142 | 4.3 | 7.0 | 0.00 | 0.00 | 0.00 | 85 | 1012.2 |
| 20260510051017 | 76 | 132 | 2.6 | 4.3 | 0.00 | 0.00 | 0.00 | 84 | 1012.2 |
| 20260510050544 | 76 | 138 | 2.6 | 3.5 | 0.00 | 0.00 | 0.00 | 82 | 1012.2 |
| 20260510050030 | 76 | 139 | 2.6 | 4.3 | 0.00 | 0.00 | 0.00 | 82 | 1012.0 |
| 20260510045519 | 76 | 149 | 3.5 | 5.2 | 0.00 | 0.00 | 0.00 | 83 | 1012.0 |
| 20260510045026 | 76 | 148 | 2.6 | 4.3 | 0.00 | 0.00 | 0.00 | 85 | 1012.0 |
| 20260510044532 | 76 | 159 | 2.6 | 3.5 | 0.00 | 0.00 | 0.00 | 86 | 1012.0 |
| 20260510044020 | 76 | 138 | 2.6 | 4.3 | 0.00 | 0.00 | 0.00 | 86 | 1012.0 |
| 20260510043527 | 76 | 176 | 0.9 | 2.6 | 0.00 | 0.00 | 0.00 | 86 | 1012.0 |
| 20260510043015 | 76 | 164 | 1.7 | 2.6 | 0.00 | 0.00 | 0.00 | 86 | 1012.0 |
| 20260510042542 | 76 | 203 | 0.9 | 2.6 | 0.00 | 0.00 | 0.00 | 86 | 1011.9 |
| 20260510042029 | 77 | 152 | 0.9 | 2.6 | 0.00 | 0.00 | 0.00 | 85 | 1011.9 |
| 20260510041537 | 77 | 153 | 0.9 | 2.6 | 0.00 | 0.00 | 0.00 | 85 | 1012.0 |
| 20260510041024 | 77 | 158 | 1.7 | 1.7 | 0.00 | 0.00 | 0.00 | 85 | 1012.0 |
| 20260510040530 | 77 | 159 | 1.7 | 3.5 | 0.00 | 0.00 | 0.00 | 85 | 1012.0 |
| 20260510040018 | 77 | 163 | 2.6 | 3.5 | 0.00 | 0.00 | 0.00 | 85 | 1011.8 |
| 20260510035525 | 78 | 161 | 2.6 | 4.3 | 0.00 | 0.00 | 0.00 | 85 | 1011.8 |
| 20260510035031 | 78 | 161 | 2.6 | 4.3 | 0.00 | 0.00 | 0.00 | 85 | 1011.8 |
| 20260510034520 | 78 | 187 | 2.6 | 3.5 | 0.00 | 0.00 | 0.00 | 85 | 1011.8 |
| 20260510034026 | 78 | 169 | 1.7 | 2.6 | 0.00 | 0.00 | 0.00 | 84 | 1011.8 |
| 20260510033553 | 78 | 169 | 1.7 | 2.6 | 0.00 | 0.00 | 0.00 | 84 | 1011.7 |
| 20260510033043 | 78 | 170 | 2.6 | 3.5 | 0.00 | 0.00 | 0.00 | 83 | 1011.7 |
| 20260510032528 | 79 | 153 | 2.6 | 4.3 | 0.00 | 0.00 | 0.00 | 83 | 1011.7 |
| 20260510032016 | 79 | 146 | 2.6 | 4.3 | 0.00 | 0.00 | 0.00 | 83 | 1011.7 |
| 20260510031523 | 79 | 159 | 2.6 | 3.5 | 0.00 | 0.00 | 0.00 | 82 | 1011.5 |
| 20260510031029 | 79 | 148 | 2.6 | 3.5 | 0.00 | 0.00 | 0.00 | 81 | 1011.4 |
| 20260510030518 | 79 | 155 | 2.6 | 4.3 | 0.00 | 0.00 | 0.00 | 81 | 1011.4 |
| 20260510030024 | 79 | 149 | 3.5 | 4.3 | 0.00 | 0.00 | 0.00 | 80 | 1011.3 |
| 20260510025531 | 79 | 168 | 2.6 | 3.5 | 0.00 | 0.00 | 0.00 | 79 | 1011.3 |
| 20260510025019 | 80 | 161 | 3.5 | 5.2 | 0.00 | 0.00 | 0.00 | 79 | 1011.2 |
| 20260510024526 | 80 | 151 | 3.5 | 6.1 | 0.00 | 0.00 | 0.00 | 78 | 1011.1 |
| 20260510024032 | 79 | 154 | 3.5 | 5.2 | 0.00 | 0.00 | 0.00 | 77 | 1011.1 |
| 20260510023521 | 79 | 172 | 1.7 | 3.5 | 0.00 | 0.00 | 0.00 | 77 | 1010.9 |
| 20260510023028 | 80 | 167 | 1.7 | 3.5 | 0.00 | 0.00 | 0.00 | 76 | 1010.9 |
| 20260510022516 | 80 | 153 | 1.7 | 2.6 | 0.00 | 0.00 | 0.00 | 76 | 1010.7 |
| 20260510022203 | 80 | 174 | 0.9 | 2.6 | 0.00 | 0.00 | 0.00 | 76 | 1010.7 |
| 20260510021529 | 80 | 180 | 0.0 | 0.9 | 0.00 | 0.00 | 0.00 | 75 | 1010.6 |
| 20260510021017 | 81 | 201 | 0.9 | 2.6 | 0.00 | 0.00 | 0.00 | 74 | 1010.5 |
| 20260510020523 | 81 | 167 | 2.6 | 3.5 | 0.00 | 0.00 | 0.00 | 73 | 1010.5 |
| 20260510020031 | 81 | 155 | 2.6 | 3.5 | 0.00 | 0.00 | 0.00 | 73 | 1010.3 |
| 20260510015519 | 81 | 141 | 2.6 | 4.3 | 0.00 | 0.00 | 0.00 | 72 | 1010.3 |
| 20260510015025 | 82 | 157 | 2.6 | 4.3 | 0.00 | 0.00 | 0.00 | 72 | 1010.3 |
| 20260510014532 | 82 | 157 | 3.5 | 5.2 | 0.00 | 0.00 | 0.00 | 71 | 1010.3 |
| 20260510014020 | 82 | 167 | 3.5 | 5.2 | 0.00 | 0.00 | 0.00 | 71 | 1010.3 |
| 20260510013527 | 82 | 166 | 3.5 | 4.3 | 0.00 | 0.00 | 0.00 | 70 | 1010.1 |
| 20260510013033 | 83 | 138 | 3.5 | 4.3 | 0.00 | 0.00 | 0.00 | 69 | 1010.1 |
| 20260510012602 | 83 | 137 | 3.5 | 4.3 | 0.00 | 0.00 | 0.00 | 68 | 1010.1 |
| 20260510012028 | 83 | 139 | 3.5 | 6.1 | 0.00 | 0.00 | 0.00 | 68 | 1010.1 |
| 20260510011517 | 84 | 146 | 3.5 | 5.2 | 0.00 | 0.00 | 0.00 | 67 | 1010.1 |
| 20260510011023 | 84 | 136 | 3.5 | 6.1 | 0.00 | 0.00 | 0.00 | 66 | 1010.0 |
| 20260510010550 | 84 | 128 | 4.3 | 7.0 | 0.00 | 0.00 | 0.00 | 65 | 1010.0 |
| 20260510010058 | 85 | 138 | 4.3 | 6.1 | 0.00 | 0.00 | 0.00 | 64 | 1010.0 |
| 20260510005645 | 85 | 148 | 5.2 | 7.0 | 0.00 | 0.00 | 0.00 | 63 | 1010.0 |
| 20260510005031 | 85 | 139 | 4.3 | 7.0 | 0.00 | 0.00 | 0.00 | 62 | 1009.9 |
| 20260510004520 | 86 | 138 | 4.3 | 6.1 | 0.00 | 0.00 | 0.00 | 61 | 1009.8 |
| 20260510004026 | 86 | 128 | 4.3 | 6.1 | 0.00 | 0.00 | 0.00 | 61 | 1009.8 |
| 20260510003533 | 86 | 133 | 4.3 | 6.1 | 0.00 | 0.00 | 0.00 | 60 | 1009.7 |
| 20260510003041 | 87 | 138 | 4.3 | 5.2 | 0.00 | 0.00 | 0.00 | 59 | 1009.7 |
| 20260510002527 | 87 | 156 | 4.3 | 5.2 | 0.00 | 0.00 | 0.00 | 59 | 1009.6 |
| 20260510002036 | 87 | 155 | 4.3 | 5.2 | 0.00 | 0.00 | 0.00 | 58 | 1009.6 |
| 20260510001543 | 88 | 126 | 5.2 | 7.0 | 0.00 | 0.00 | 0.00 | 57 | 1009.5 |
| 20260510001029 | 88 | 136 | 4.3 | 6.1 | 0.00 | 0.00 | 0.00 | 57 | 1009.5 |
| 20260510000517 | 89 | 116 | 3.5 | 5.2 | 0.00 | 0.00 | 0.00 | 56 | 1009.5 |
| 20260510000024 | 89 | 123 | 3.5 | 5.2 | 0.00 | 0.00 | 0.00 | 55 | 1009.3 |
| 20260509235530 | 89 | 130 | 3.5 | 5.2 | 0.00 | 0.00 | 0.00 | 55 | 1009.3 |
| 20260509235039 | 89 | 143 | 4.3 | 6.1 | 0.00 | 0.00 | 0.00 | 55 | 1009.3 |
| 20260509234525 | 89 | 147 | 5.2 | 7.0 | 0.00 | 0.00 | 0.00 | 55 | 1009.3 |
| 20260509234032 | 89 | 127 | 4.3 | 6.1 | 0.00 | 0.00 | 0.00 | 54 | 1009.3 |
| 20260509233540 | 90 | 148 | 5.2 | 6.1 | 0.00 | 0.00 | 0.00 | 53 | 1009.3 |
| 20260509233047 | 90 | 155 | 4.3 | 6.1 | 0.00 | 0.00 | 0.00 | 53 | 1009.3 |
| 20260509232515 | 90 | 119 | 4.3 | 5.2 | 0.00 | 0.00 | 0.00 | 53 | 1009.2 |
| 20260509232022 | 90 | 144 | 5.2 | 7.0 | 0.00 | 0.00 | 0.00 | 52 | 1009.1 |
| 20260509231528 | 91 | 160 | 4.3 | 7.0 | 0.00 | 0.00 | 0.00 | 52 | 1009.1 |
| 20260509231017 | 91 | 136 | 4.3 | 6.1 | 0.00 | 0.00 | 0.00 | 51 | 1009.1 |
| 20260509230543 | 91 | 140 | 4.3 | 5.2 | 0.00 | 0.00 | 0.00 | 51 | 1009.1 |
| 20260509230030 | 91 | 135 | 4.3 | 5.2 | 0.00 | 0.00 | 0.00 | 50 | 1009.1 |
| 20260509225538 | 91 | 119 | 4.3 | 6.1 | 0.00 | 0.00 | 0.00 | 51 | 1009.1 |
| 20260509225025 | 90 | 137 | 4.3 | 5.2 | 0.00 | 0.00 | 0.00 | 50 | 1009.3 |
| 20260509224532 | 90 | 123 | 4.3 | 5.2 | 0.00 | 0.00 | 0.00 | 51 | 1009.3 |
| 20260509224020 | 91 | 109 | 4.3 | 6.1 | 0.00 | 0.00 | 0.00 | 52 | 1009.3 |
| 20260509223526 | 91 | 132 | 4.3 | 7.0 | 0.00 | 0.00 | 0.00 | 53 | 1009.1 |
| 20260509223033 | 92 | 176 | 2.6 | 5.2 | 0.00 | 0.00 | 0.00 | 55 | 1009.1 |
| 20260509222521 | 92 | 289 | 0.9 | 2.6 | 0.00 | 0.00 | 0.00 | 55 | 1009.2 |
| 20260509222028 | 91 | 109 | 3.5 | 5.2 | 0.00 | 0.00 | 0.00 | 56 | 1009.3 |
| 20260509221536 | 91 | 136 | 2.6 | 4.3 | 0.00 | 0.00 | 0.00 | 55 | 1009.3 |
| 20260509221023 | 92 | 259 | 1.7 | 2.6 | 0.00 | 0.00 | 0.00 | 54 | 1009.3 |
| 20260509220529 | 91 | 356 | 2.6 | 3.5 | 0.00 | 0.00 | 0.00 | 56 | 1009.3 |
| 20260509220017 | 91 | 302 | 0.9 | 4.3 | 0.00 | 0.00 | 0.00 | 56 | 1009.5 |
| 20260509215544 | 91 | 144 | 2.6 | 4.3 | 0.00 | 0.00 | 0.00 | 56 | 1009.5 |
| 20260509215031 | 91 | 26 | 2.6 | 3.5 | 0.00 | 0.00 | 0.00 | 56 | 1009.5 |
| 20260509214519 | 91 | 343 | 2.6 | 4.3 | 0.00 | 0.00 | 0.00 | 56 | 1009.6 |
| 20260509214026 | 91 | 193 | 1.7 | 3.5 | 0.00 | 0.00 | 0.00 | 57 | 1009.6 |
| 20260509213532 | 90 | 86 | 2.6 | 3.5 | 0.00 | 0.00 | 0.00 | 57 | 1009.7 |
| 20260509213021 | 90 | 60 | 2.6 | 4.3 | 0.00 | 0.00 | 0.00 | 58 | 1009.7 |
| 20260509212627 | 89 | 140 | 3.5 | 4.3 | 0.00 | 0.00 | 0.00 | 59 | 1009.8 |
| 20260509212036 | 90 | 136 | 4.3 | 5.2 | 0.00 | 0.00 | 0.00 | 58 | 1009.8 |
| 20260509211542 | 90 | 144 | 3.5 | 5.2 | 0.00 | 0.00 | 0.00 | 57 | 1009.8 |
| 20260509211029 | 89 | 24 | 4.3 | 7.0 | 0.00 | 0.00 | 0.00 | 57 | 1009.8 |
| 20260509210517 | 89 | 36 | 5.2 | 7.8 | 0.00 | 0.00 | 0.00 | 56 | 1009.8 |
| 20260509210024 | 90 | 103 | 5.2 | 7.0 | 0.00 | 0.00 | 0.00 | 56 | 1010.2 |
| 20260509205530 | 90 | 73 | 4.3 | 6.1 | 0.00 | 0.00 | 0.00 | 56 | 1010.2 |
| 20260509205018 | 89 | 117 | 3.5 | 6.1 | 0.00 | 0.00 | 0.00 | 56 | 1010.2 |
| 20260509204525 | 89 | 131 | 3.5 | 5.2 | 0.00 | 0.00 | 0.00 | 57 | 1010.3 |
| 20260509204031 | 89 | 137 | 5.2 | 7.8 | 0.00 | 0.00 | 0.00 | 59 | 1010.3 |
| 20260509203520 | 89 | 121 | 4.3 | 6.1 | 0.00 | 0.00 | 0.00 | 60 | 1010.5 |
| 20260509203026 | 88 | 93 | 3.5 | 6.1 | 0.00 | 0.00 | 0.00 | 58 | 1010.5 |
| 20260509202533 | 88 | 115 | 4.3 | 6.1 | 0.00 | 0.00 | 0.00 | 55 | 1010.7 |
| 20260509202041 | 85 | 144 | 6.1 | 7.8 | 0.00 | 0.00 | 0.00 | 57 | 1010.8 |
| 20260509201528 | 85 | 128 | 7.0 | 8.7 | 0.00 | 0.00 | 0.00 | 58 | 1010.8 |
| 20260509201016 | 87 | 146 | 5.2 | 11.3 | 0.00 | 0.00 | 0.00 | 63 | 1010.9 |
| 20260509200543 | 89 | 356 | 5.2 | 7.0 | 0.00 | 0.00 | 0.00 | 64 | 1010.9 |
| 20260509200030 | 89 | 20 | 5.2 | 7.0 | 0.00 | 0.00 | 0.00 | 63 | 1010.8 |
| 20260509195518 | 88 | 344 | 3.5 | 4.3 | 0.00 | 0.00 | 0.00 | 66 | 1010.8 |
| 20260509195024 | 89 | 4 | 3.5 | 6.1 | 0.00 | 0.00 | 0.00 | 64 | 1010.8 |
| 20260509194551 | 91 | 46 | 4.3 | 7.8 | 0.00 | 0.00 | 0.00 | 61 | 1010.8 |
| 20260509194040 | 90 | 67 | 2.6 | 4.3 | 0.00 | 0.00 | 0.00 | 59 | 1010.8 |
| 20260509193526 | 90 | 283 | 2.6 | 4.3 | 0.00 | 0.00 | 0.00 | 60 | 1010.9 |
| 20260509193033 | 89 | 309 | 3.5 | 7.0 | 0.00 | 0.00 | 0.00 | 60 | 1010.9 |
| 20260509192521 | 89 | 297 | 1.7 | 3.5 | 0.00 | 0.00 | 0.00 | 61 | 1010.9 |
| 20260509192027 | 88 | 313 | 5.2 | 7.8 | 0.00 | 0.00 | 0.00 | 64 | 1010.9 |
| 20260509191516 | 87 | 321 | 4.3 | 7.0 | 0.00 | 0.00 | 0.00 | 66 | 1010.9 |
| 20260509191023 | 89 | 337 | 5.2 | 6.1 | 0.00 | 0.00 | 0.00 | 65 | 1011.0 |
| 20260509190529 | 90 | 325 | 4.3 | 7.0 | 0.00 | 0.00 | 0.00 | 65 | 1011.0 |
| 20260509190017 | 91 | 284 | 3.5 | 6.1 | 0.00 | 0.00 | 0.00 | 60 | 1011.5 |
| 20260509185525 | 90 | 316 | 5.2 | 7.8 | 0.00 | 0.00 | 0.00 | 60 | 1011.5 |
| 20260509185030 | 89 | 305 | 1.7 | 4.3 | 0.00 | 0.00 | 0.00 | 64 | 1011.5 |
| 20260509184519 | 88 | 311 | 3.5 | 4.3 | 0.00 | 0.00 | 0.00 | 64 | 1011.5 |
| 20260509184025 | 90 | 258 | 2.6 | 4.3 | 0.00 | 0.00 | 0.00 | 62 | 1011.6 |
| 20260509183532 | 90 | 272 | 3.5 | 6.1 | 0.00 | 0.00 | 0.00 | 62 | 1011.7 |
| 20260509183020 | 88 | 184 | 0.9 | 2.6 | 0.00 | 0.00 | 0.00 | 65 | 1011.7 |
| 20260509182627 | 88 | 287 | 1.7 | 4.3 | 0.00 | 0.00 | 0.00 | 64 | 1011.7 |
| 20260509182015 | 88 | 277 | 2.6 | 3.5 | 0.00 | 0.00 | 0.00 | 64 | 1011.7 |
| 20260509181522 | 88 | 256 | 3.5 | 4.3 | 0.00 | 0.00 | 0.00 | 64 | 1011.9 |
| 20260509181028 | 87 | 210 | 2.6 | 4.3 | 0.00 | 0.00 | 0.00 | 66 | 1012.2 |
| 20260509180537 | 89 | 240 | 2.6 | 5.2 | 0.00 | 0.00 | 0.00 | 64 | 1012.2 |
| 20260509180023 | 90 | 301 | 2.6 | 6.1 | 0.00 | 0.00 | 0.00 | 64 | 1011.8 |
| 20260509175550 | 90 | 243 | 2.6 | 4.3 | 0.00 | 0.00 | 0.00 | 64 | 1011.8 |
| 20260509175018 | 89 | 301 | 2.6 | 7.8 | 0.00 | 0.00 | 0.00 | 67 | 1012.0 |
| 20260509174526 | 87 | 243 | 3.5 | 6.1 | 0.00 | 0.00 | 0.00 | 69 | 1012.0 |
| 20260509174051 | 86 | 289 | 1.7 | 5.2 | 0.00 | 0.00 | 0.00 | 70 | 1012.1 |
| 20260509173540 | 85 | 214 | 2.6 | 5.2 | 0.00 | 0.00 | 0.00 | 71 | 1012.4 |
| 20260509173026 | 85 | 211 | 2.6 | 4.3 | 0.00 | 0.00 | 0.00 | 72 | 1012.4 |
| 20260509172533 | 85 | 158 | 2.6 | 5.2 | 0.00 | 0.00 | 0.00 | 71 | 1012.6 |
| 20260509172021 | 87 | 226 | 1.7 | 3.5 | 0.00 | 0.00 | 0.00 | 71 | 1012.7 |
| 20260509171528 | 89 | 205 | 1.7 | 3.5 | 0.00 | 0.00 | 0.00 | 69 | 1012.7 |
| 20260509171016 | 87 | 270 | 1.7 | 4.3 | 0.00 | 0.00 | 0.00 | 71 | 1012.7 |
| 20260509170523 | 86 | 211 | 2.6 | 6.1 | 0.00 | 0.00 | 0.00 | 73 | 1012.7 |
| 20260509170050 | 86 | 204 | 3.5 | 5.2 | 0.00 | 0.00 | 0.00 | 75 | 1012.6 |
| 20260509165517 | 86 | 206 | 4.3 | 7.0 | 0.00 | 0.00 | 0.00 | 74 | 1012.6 |
| 20260509165024 | 87 | 265 | 3.5 | 6.1 | 0.00 | 0.00 | 0.00 | 75 | 1012.7 |
| 20260509164531 | 86 | 232 | 3.5 | 6.1 | 0.00 | 0.00 | 0.00 | 74 | 1012.9 |
| 20260509164059 | 85 | 251 | 2.6 | 5.2 | 0.00 | 0.00 | 0.00 | 77 | 1012.9 |
| 20260509163526 | 84 | 224 | 3.5 | 5.2 | 0.00 | 0.00 | 0.00 | 79 | 1012.9 |
| 20260509163033 | 84 | 233 | 3.5 | 6.1 | 0.00 | 0.00 | 0.00 | 79 | 1012.9 |
| 20260509162521 | 83 | 222 | 3.5 | 4.3 | 0.00 | 0.00 | 0.00 | 80 | 1012.7 |
| 20260509162027 | 83 | 214 | 4.3 | 6.1 | 0.00 | 0.00 | 0.00 | 82 | 1012.7 |
| 20260509161516 | 81 | 214 | 5.2 | 8.7 | 0.00 | 0.00 | 0.00 | 84 | 1012.7 |
| 20260509161022 | 81 | 187 | 7.0 | 9.6 | 0.00 | 0.00 | 0.00 | 84 | 1012.7 |
| 20260509160529 | 80 | 219 | 5.2 | 7.0 | 0.00 | 0.00 | 0.00 | 86 | 1012.7 |
| 20260509160018 | 78 | 199 | 7.0 | 8.7 | 0.00 | 0.00 | 0.00 | 88 | 1012.7 |
| 20260509155524 | 79 | 227 | 6.1 | 11.3 | 0.00 | 0.00 | 0.00 | 87 | 1012.7 |
| 20260509155051 | 79 | 216 | 5.2 | 7.8 | 0.00 | 0.00 | 0.00 | 87 | 1012.6 |
| 20260509154518 | 80 | 188 | 7.0 | 10.4 | 0.00 | 0.00 | 0.00 | 85 | 1012.6 |
| 20260509154025 | 81 | 198 | 6.1 | 8.7 | 0.00 | 0.00 | 0.00 | 85 | 1012.5 |
| 20260509153532 | 80 | 187 | 4.3 | 7.0 | 0.00 | 0.00 | 0.00 | 86 | 1012.4 |
| 20260509153020 | 80 | 209 | 6.1 | 8.7 | 0.00 | 0.00 | 0.00 | 86 | 1012.4 |
| 20260509152527 | 82 | 201 | 5.2 | 8.7 | 0.00 | 0.00 | 0.00 | 84 | 1012.1 |
| 20260509152033 | 83 | 196 | 4.3 | 7.0 | 0.00 | 0.00 | 0.00 | 82 | 1012.0 |
| 20260509151522 | 85 | 149 | 3.5 | 5.2 | 0.00 | 0.00 | 0.00 | 78 | 1012.0 |
| 20260509151028 | 87 | 229 | 5.2 | 8.7 | 0.00 | 0.00 | 0.00 | 75 | 1011.9 |
| 20260509150517 | 87 | 210 | 4.3 | 6.1 | 0.00 | 0.00 | 0.00 | 76 | 1011.9 |
| 20260509150023 | 87 | 212 | 2.6 | 4.3 | 0.00 | 0.00 | 0.00 | 75 | 1012.0 |
| 20260509145530 | 86 | 210 | 2.6 | 5.2 | 0.00 | 0.00 | 0.00 | 76 | 1012.0 |
| 20260509145018 | 87 | 192 | 3.5 | 7.0 | 0.00 | 0.00 | 0.00 | 76 | 1012.0 |
| 20260509144545 | 85 | 225 | 2.6 | 4.3 | 0.00 | 0.00 | 0.00 | 77 | 1012.0 |
| 20260509144111 | 86 | 216 | 4.3 | 6.1 | 0.00 | 0.00 | 0.00 | 77 | 1012.0 |
| 20260509143519 | 86 | 211 | 2.6 | 3.5 | 0.00 | 0.00 | 0.00 | 76 | 1011.8 |
| 20260509143026 | 87 | 207 | 1.7 | 3.5 | 0.00 | 0.00 | 0.00 | 76 | 1011.8 |
| 20260509142533 | 86 | 261 | 1.7 | 2.6 | 0.00 | 0.00 | 0.00 | 77 | 1011.7 |
| 20260509142021 | 84 | 188 | 2.6 | 4.3 | 0.00 | 0.00 | 0.00 | 78 | 1011.7 |
| 20260509141528 | 84 | 178 | 1.7 | 3.5 | 0.00 | 0.00 | 0.00 | 80 | 1011.5 |
| 20260509141016 | 82 | 186 | 2.6 | 4.3 | 0.00 | 0.00 | 0.00 | 83 | 1011.1 |
| 20260509140543 | 82 | 201 | 3.5 | 6.1 | 0.00 | 0.00 | 0.00 | 84 | 1011.1 |
| 20260509140029 | 81 | 197 | 2.6 | 4.3 | 0.00 | 0.00 | 0.00 | 86 | 1011.3 |
| 20260509135538 | 80 | 182 | 3.5 | 6.1 | 0.00 | 0.00 | 0.00 | 87 | 1011.3 |
| 20260509135024 | 80 | 205 | 3.5 | 5.2 | 0.00 | 0.00 | 0.00 | 88 | 1011.3 |
| 20260509134530 | 79 | 146 | 3.5 | 5.2 | 0.00 | 0.00 | 0.00 | 90 | 1011.2 |
| 20260509134019 | 78 | 180 | 3.5 | 7.0 | 0.00 | 0.00 | 0.00 | 90 | 1011.2 |
| 20260509133526 | 77 | 181 | 3.5 | 4.3 | 0.00 | 0.00 | 0.00 | 92 | 1011.4 |
| 20260509133032 | 76 | 183 | 3.5 | 6.1 | 0.00 | 0.00 | 0.00 | 94 | 1011.4 |
| 20260509132520 | 76 | 165 | 4.3 | 7.0 | 0.00 | 0.00 | 0.00 | 96 | 1011.5 |
| 20260509132027 | 75 | 210 | 5.2 | 8.7 | 0.00 | 0.00 | 0.00 | 97 | 1011.5 |
| 20260509131515 | 75 | 169 | 4.3 | 6.1 | 0.00 | 0.00 | 0.00 | 97 | 1011.5 |
| 20260509131042 | 74 | 170 | 5.2 | 7.8 | 0.00 | 0.00 | 0.00 | 99 | 1011.4 |
| 20260509130528 | 74 | 184 | 5.2 | 7.0 | 0.00 | 0.00 | 0.00 | 99 | 1011.4 |
| 20260509130037 | 74 | 158 | 4.3 | 6.1 | 0.00 | 0.00 | 0.00 | 99 | 1011.9 |
| 20260509125523 | 73 | 186 | 2.6 | 4.3 | 0.00 | 0.00 | 0.00 | 99 | 1011.9 |
| 20260509125030 | 73 | 187 | 1.7 | 2.6 | 0.00 | 0.00 | 0.00 | 99 | 1011.9 |
| 20260509124558 | 72 | 201 | 0.9 | 1.7 | 0.00 | 0.00 | 0.00 | 99 | 1011.8 |
| 20260509124045 | 72 | 223 | 0.9 | 2.6 | 0.00 | 0.00 | 0.00 | 99 | 1011.9 |